Weather History for KBLH - February, 2013

Change the Weather History Date:

Tuesday, February 26, 2013

  Actual Average Record
Temperature  
Mean Temperature 54 °F -  
Max Temperature 70 °F 69 °F 90 °F (1986)
Min Temperature 37 °F 45 °F 36 °F (1977)
Degree Days  
Heating Degree Days 12    
Growing Degree Days 4 (Base 50)    
Moisture  
Dew Point 13 °F    
Average Humidity 22    
Maximum Humidity 46    
Minimum Humidity 9    
Precipitation  
Precipitation 0.00 in - - ()
Sea Level Pressure  
Sea Level Pressure 30.05 in    
Wind  
Wind Speed 9 mph (North)    
Max Wind Speed 26 mph    
Max Gust Speed 38 mph    
Visibility 10 miles    
Events      
Averages and records for this station are not official NWS values.
T = Trace of Precipitation, MM = Missing Value Source: NWS Daily Summary

Daily Weather History Graph

Daily Weather History Graph

Search for Another Location

Airport or City:

Trip Planner

Search our weather history database for the weather conditions in past years. The results will help you decide how hot, cold, wet, or windy it might be!

Date:

Astronomy

Feb. 26, 2013 Rise Set
Actual Time 6:10 AM PST 5:33 PM PST
Civil Twilight 5:45 AM PST 5:58 PM PST
Nautical Twilight 5:16 AM PST 6:27 PM PST
Astronomical Twilight 4:47 AM PST 6:56 PM PST
Moon 6:47 PM PST (2/26) 6:20 AM PST (2/26)
Length of Visible Light 12h 12m
Length of Day
11h 22m
Full, 99% of the Moon is Illuminated
Feb 26
Full
Mar 4
Last Quarter
Mar 11
New
Mar 19
First Quarter
Mar 27
Full

Hourly Weather History & Observations

Time (PST) Temp. Windchill Dew Point Humidity Pressure Visibility Wind Dir Wind Speed Gust Speed Precip Events Conditions
12:52 AM 39.9 °F 36.7 °F 18.0 °F 41% 30.01 in 10.0 mi NNE 4.6 mph - N/A   Clear
1:52 AM 39.0 °F 34.8 °F 18.0 °F 43% 29.99 in 10.0 mi North 5.8 mph - N/A   Clear
2:52 AM 39.0 °F 34.0 °F 17.1 °F 41% 29.99 in 10.0 mi North 6.9 mph - N/A   Clear
3:52 AM 37.0 °F 34.5 °F 18.0 °F 46% 29.99 in 10.0 mi North 3.5 mph - N/A   Clear
4:52 AM 42.1 °F - 16.0 °F 35% 30.01 in 10.0 mi Calm Calm - N/A   Clear
5:52 AM 42.1 °F 38.4 °F 15.1 °F 34% 30.01 in 10.0 mi West 5.8 mph - N/A   Clear
7:52 AM 45.0 °F - 19.9 °F 37% 30.06 in 10.0 mi Calm Calm - N/A   Clear
8:52 AM 50.0 °F - 19.0 °F 29% 30.08 in 10.0 mi ESE 3.5 mph - N/A   Clear
9:52 AM 62.1 °F - 15.1 °F 16% 30.09 in 10.0 mi North 16.1 mph 20.7 mph N/A   Clear
10:52 AM 64.9 °F - 17.1 °F 16% 30.09 in 10.0 mi NE 10.4 mph 25.3 mph N/A   Clear
12:52 PM 69.1 °F - 10.9 °F 11% 30.04 in 10.0 mi North 23.0 mph 38.0 mph N/A   Clear
1:52 PM 70.0 °F - 8.1 °F 9% 30.03 in 10.0 mi North 26.5 mph 32.2 mph N/A   Clear
2:52 PM 69.1 °F - 7.0 °F 9% 30.03 in 10.0 mi North 19.6 mph 31.1 mph N/A   Clear
3:52 PM 68.0 °F - 9.0 °F 10% 30.04 in 10.0 mi North 18.4 mph 27.6 mph N/A   Clear
4:52 PM 66.0 °F - 9.0 °F 11% 30.04 in 10.0 mi North 18.4 mph - N/A   Clear
5:52 PM 62.1 °F - 7.0 °F 11% 30.04 in 10.0 mi NNW 16.1 mph - N/A   Clear
6:52 PM 60.1 °F - 7.0 °F 12% 30.06 in 10.0 mi NNW 13.8 mph - N/A   Clear
7:52 PM 60.1 °F - 7.0 °F 12% 30.08 in 10.0 mi NNW 17.3 mph - N/A   Clear
9:52 PM 57.9 °F - 9.0 °F 14% 30.13 in 10.0 mi NNW 15.0 mph - N/A   Clear
10:52 PM 54.0 °F - 9.0 °F 17% 30.15 in 10.0 mi WNW 8.1 mph - N/A   Clear
11:52 PM 52.0 °F - 9.0 °F 18% 30.16 in 10.0 mi NW 9.2 mph - N/A   Clear